Volver al catálogo

ASTRA 2F

ActivoComunicacionesGEO
NORAD 38778·PAYLOAD·🇱🇺 Luxembourg

Lanzado Sep 28, 2012 desde Guiana Space Centre

Loading…

TLE

ActualizadoSource: CelesTrak SupGP

Época: Sep 13, 2026, 23:30 UTC

1 38778C 12051A   26256.97916667  .00000240  00000+0  00000+0 0  2564
2 38778   0.0639 255.3200 0004281 308.5753 169.7506  1.00272716    17

Sigue ASTRA 2F en tiempo real con AllMySat

Download on the App Store